Total_Precipitation_Accumulation
0.04 0.08 0.22 0.42 0.99 1.34 1.18 0.73 0.53 0.50 0.56 0.55 0.49 0.46 0.49 0.47 0.65 1.15 0.74 0.41 0.19 0.07 0.05 0.14 0.25 0.21 0.18 0.17 0.18 0.19 0.18 0.19 0.20 0.20 0.17 0.17 0.16 0.16 0.17 0.21 0.25 0.28 0.30 0.31 0.33 0.31 0.30 0.34 0.37
0.07 0.14 0.32 0.84 1.29 1.26 1.11 0.63 0.36 0.44 0.53 0.67 0.65 0.51 0.42 0.42 0.41 0.36 0.35 0.47 0.18 0.09 0.06 0.07 0.18 0.19 0.15 0.15 0.17 0.18 0.18 0.17 0.17 0.17 0.18 0.18 0.19 0.22 0.25 0.27 0.27 0.30 0.30 0.29 0.28 0.27 0.29 0.30 0.38
0.10 0.22 0.40 0.84 0.92 0.83 0.83 0.50 0.37 0.33 0.50 0.73 0.70 0.47 0.46 0.49 0.40 0.31 0.31 0.37 0.21 0.16 0.09 0.10 0.17 0.17 0.15 0.16 0.16 0.17 0.18 0.17 0.16 0.17 0.19 0.21 0.25 0.30 0.32 0.31 0.30 0.33 0.37 0.36 0.34 0.30 0.31 0.31 0.37
0.12 0.28 0.50 0.57 0.39 0.31 0.39 0.44 0.45 0.44 0.63 0.76 0.62 0.52 0.50 0.49 0.44 0.32 0.28 0.37 0.25 0.22 0.15 0.15 0.21 0.20 0.17 0.16 0.15 0.18 0.20 0.18 0.18 0.18 0.20 0.25 0.29 0.34 0.34 0.33 0.36 0.39 0.40 0.37 0.36 0.39 0.38 0.40 0.47
0.11 0.27 0.53 0.42 0.25 0.19 0.22 0.27 0.35 0.52 0.70 0.82 0.69 0.66 0.68 0.51 0.42 0.36 0.28 0.39 0.37 0.29 0.25 0.24 0.29 0.28 0.23 0.20 0.21 0.22 0.22 0.20 0.19 0.19 0.21 0.27 0.31 0.32 0.32 0.33 0.36 0.34 0.37 0.39 0.42 0.47 0.47 0.52 0.56
0.10 0.21 0.39 0.27 0.16 0.14 0.19 0.24 0.38 0.57 0.61 0.69 0.79 0.85 0.81 0.59 0.52 0.44 0.40 0.49 0.50 0.41 0.31 0.37 0.38 0.36 0.30 0.27 0.28 0.28 0.27 0.25 0.24 0.23 0.26 0.29 0.33 0.34 0.34 0.37 0.35 0.30 0.31 0.35 0.42 0.53 0.52 0.53 0.59
0.10 0.16 0.19 0.16 0.11 0.12 0.20 0.30 0.35 0.47 0.56 0.77 0.81 0.84 0.89 0.79 0.66 0.55 0.65 0.87 0.83 0.65 0.47 0.48 0.45 0.40 0.38 0.39 0.39 0.39 0.37 0.34 0.32 0.31 0.32 0.33 0.37 0.37 0.39 0.48 0.42 0.37 0.39 0.41 0.51 0.57 0.65 0.60 0.62
0.06 0.12 0.15 0.13 0.08 0.11 0.18 0.25 0.35 0.48 0.60 0.68 0.78 0.90 0.91 0.80 0.70 0.75 0.95 1.29 1.41 1.25 0.92 0.62 0.57 0.58 0.51 0.44 0.47 0.49 0.42 0.39 0.38 0.38 0.39 0.42 0.48 0.50 0.53 0.54 0.56 0.52 0.56 0.57 0.63 0.64 0.64 0.68 0.72
0.03 0.09 0.13 0.10 0.10 0.12 0.19 0.24 0.30 0.35 0.46 0.68 0.87 1.02 0.91 0.72 0.74 0.94 1.15 1.43 1.60 1.42 1.20 0.98 0.88 0.76 0.68 0.61 0.53 0.61 0.56 0.53 0.53 0.62 0.64 0.73 0.89 0.86 0.86 0.75 0.79 0.79 0.83 0.91 0.97 0.94 0.92 0.94 0.93
0.01 0.05 0.06 0.04 0.05 0.05 0.11 0.21 0.27 0.39 0.66 1.13 1.37 1.23 0.98 0.85 0.95 1.20 1.37 1.35 1.41 1.42 1.32 1.32 1.16 1.05 0.99 0.90 0.94 1.03 0.97 0.95 0.97 1.12 1.14 1.38 1.54 1.35 0.98 1.03 1.22 1.18 1.29 1.40 1.53 1.71 1.54 1.37 1.19
0.00 0.02 0.03 0.02 0.02 0.02 0.06 0.13 0.25 0.43 0.86 1.40 1.60 1.29 1.10 1.07 1.17 1.31 1.61 1.68 1.75 1.72 1.54 1.60 1.48 1.37 1.39 1.43 1.39 1.43 1.53 1.59 1.63 1.65 1.69 1.95 1.83 1.47 1.25 1.40 1.68 1.67 1.69 1.74 1.98 2.18 1.83 1.82 1.85
0.00 0.00 0.00 0.01 0.01 0.02 0.04 0.12 0.31 0.57 0.97 1.26 1.18 1.03 1.04 1.24 1.42 1.59 1.84 2.13 2.22 2.26 2.11 1.88 1.81 1.94 1.92 1.80 1.73 1.59 1.46 1.45 1.56 1.67 1.68 2.03 2.17 2.03 1.91 1.94 1.82 1.97 2.11 2.37 2.33 2.36 2.27 2.26 2.12
0.00 0.00 0.00 0.01 0.01 0.03 0.06 0.15 0.34 0.66 0.88 0.94 0.82 0.86 1.12 1.40 1.66 2.10 2.49 2.56 2.52 2.71 2.82 2.62 2.56 2.49 2.27 2.20 1.82 1.59 1.51 1.38 1.31 1.51 1.67 1.91 2.19 2.22 2.25 1.98 1.89 1.82 1.96 2.20 2.20 2.07 2.21 2.34 2.33
0.00 0.00 0.01 0.02 0.02 0.04 0.09 0.19 0.34 0.57 0.67 0.69 0.76 0.99 1.20 1.60 1.90 2.40 2.88 2.93 3.02 3.27 3.42 3.32 3.29 3.06 2.71 2.38 2.09 1.96 1.70 1.57 1.37 1.42 1.44 1.79 2.11 2.09 1.95 1.93 1.96 1.90 2.00 2.03 2.03 2.10 2.30 2.42 2.53
0.00 0.01 0.06 0.07 0.05 0.07 0.10 0.28 0.42 0.61 0.72 0.68 0.85 1.03 1.41 1.86 2.11 2.42 2.67 3.04 3.44 3.82 3.87 3.81 3.80 3.65 3.50 3.14 2.69 2.28 2.05 1.77 1.69 1.57 1.45 1.70 1.95 2.04 2.01 1.93 1.78 1.82 1.91 2.00 2.03 2.08 2.22 2.13 2.21
0.02 0.05 0.16 0.17 0.11 0.10 0.12 0.45 0.71 0.69 0.70 0.74 0.91 1.24 1.52 1.81 2.21 2.43 2.75 3.08 3.47 3.97 4.33 4.37 3.86 3.80 3.77 3.58 3.22 2.80 2.63 2.44 2.20 1.81 1.59 1.58 1.75 1.81 1.84 1.68 1.63 1.72 1.60 1.62 1.71 1.66 1.75 1.83 1.98
0.05 0.10 0.16 0.25 0.16 0.13 0.24 0.72 1.04 0.78 0.62 0.73 1.02 1.35 1.73 1.92 2.33 2.47 2.66 2.93 3.37 4.22 5.06 5.03 4.46 4.05 3.75 3.61 3.52 3.38 3.11 2.68 2.30 1.99 1.78 1.57 1.49 1.35 1.36 1.32 1.38 1.39 1.34 1.33 1.24 1.44 1.52 1.64 1.75
0.05 0.10 0.23 0.35 0.22 0.20 0.30 0.67 0.71 0.63 0.79 0.79 0.88 1.12 1.45 1.56 1.85 2.12 2.41 2.93 3.72 4.85 5.64 5.51 4.83 4.31 3.96 3.74 3.50 3.42 3.03 2.69 2.29 2.06 1.85 1.52 1.40 1.21 1.13 1.09 1.12 1.07 1.11 1.19 1.24 1.33 1.32 1.31 1.39
0.04 0.09 0.22 0.26 0.20 0.28 0.36 0.56 0.66 0.77 0.95 0.95 0.83 0.87 1.17 1.39 1.65 2.02 2.60 3.48 4.55 5.43 5.71 5.16 4.60 4.22 3.78 3.33 2.73 2.34 2.21 2.09 1.87 1.63 1.35 1.19 1.09 1.11 1.10 0.97 0.96 0.88 0.90 0.93 0.95 1.03 1.04 1.02 1.10
0.06 0.08 0.19 0.26 0.18 0.21 0.35 0.66 0.94 0.92 0.84 0.82 0.85 0.83 0.99 1.37 1.82 2.45 3.45 4.11 4.38 4.49 4.21 3.85 3.53 3.32 2.86 2.39 2.06 1.85 1.80 1.65 1.47 1.36 1.25 1.00 0.90 0.91 0.85 0.86 0.82 0.77 0.86 0.89 0.88 0.88 0.89 0.88 0.91
0.10 0.10 0.18 0.25 0.15 0.16 0.36 0.80 1.07 1.08 0.86 0.73 0.73 0.69 0.93 1.38 1.96 2.76 3.33 3.47 3.21 2.89 2.79 2.71 2.72 2.45 2.29 2.17 2.01 1.90 1.85 1.65 1.38 1.22 1.12 0.92 0.81 0.79 0.74 0.72 0.74 0.77 0.74 0.81 0.84 0.76 0.81 0.85 0.80
0.09 0.06 0.06 0.09 0.15 0.33 0.52 1.03 1.18 0.98 0.92 0.76 0.74 0.72 0.85 1.16 1.49 1.92 2.16 2.07 2.19 2.31 2.31 2.40 2.45 2.17 2.14 2.04 1.68 1.49 1.38 1.25 1.08 1.00 1.03 1.07 0.91 0.79 0.69 0.64 0.62 0.66 0.66 0.79 0.70 0.70 0.76 0.80 0.71
0.04 0.03 0.04 0.11 0.22 0.41 0.60 0.85 0.96 0.76 0.90 0.73 0.61 0.63 0.65 0.83 0.92 1.02 1.14 1.28 1.49 1.59 1.74 2.03 2.22 2.15 1.99 1.81 1.66 1.56 1.39 1.33 1.29 1.24 1.21 1.16 1.07 0.90 0.77 0.73 0.66 0.65 0.64 0.69 0.69 0.82 0.79 0.76 0.70
0.03 0.05 0.12 0.23 0.40 0.89 0.84 0.82 1.02 0.92 0.91 0.69 0.52 0.47 0.55 0.70 0.78 0.81 0.85 0.98 1.14 1.26 1.40 1.65 1.94 2.05 1.98 1.81 1.66 1.58 1.51 1.44 1.35 1.30 1.26 1.12 1.04 0.98 0.88 0.85 0.81 0.75 0.70 0.67 0.65 0.76 0.81 0.84 0.82
0.05 0.07 0.24 0.58 0.98 1.14 0.71 0.78 1.05 0.79 0.68 0.51 0.31 0.29 0.43 0.64 0.77 0.83 0.79 0.75 0.82 0.97 1.13 1.21 1.37 1.60 1.70 1.65 1.58 1.53 1.58 1.44 1.24 1.14 1.09 1.05 0.93 0.85 0.80 0.79 0.76 0.67 0.68 0.74 0.79 0.79 0.78 0.81 0.84
0.05 0.04 0.11 0.22 0.33 0.51 0.66 1.05 1.18 0.84 0.56 0.31 0.20 0.24 0.39 0.55 0.59 0.65 0.67 0.62 0.59 0.69 0.87 0.98 1.15 1.30 1.48 1.47 1.41 1.36 1.40 1.32 1.21 1.18 0.99 0.91 0.88 0.83 0.85 0.82 0.74 0.71 0.73 0.73 0.84 0.73 0.69 0.74 0.75
0.05 0.03 0.04 0.07 0.12 0.32 0.66 0.96 0.92 0.73 0.51 0.32 0.23 0.23 0.25 0.33 0.40 0.50 0.58 0.62 0.62 0.62 0.73 0.84 1.02 1.18 1.35 1.45 1.44 1.33 1.32 1.33 1.29 1.18 1.04 0.91 0.95 0.93 0.99 0.91 0.80 0.80 0.85 0.86 0.90 0.77 0.74 0.78 0.73
0.05 0.04 0.04 0.05 0.11 0.23 0.50 0.87 1.05 0.87 0.58 0.35 0.30 0.29 0.34 0.36 0.32 0.44 0.56 0.58 0.52 0.45 0.52 0.66 0.82 1.02 1.15 1.31 1.32 1.20 1.33 1.30 1.27 1.18 1.05 0.94 0.91 0.90 0.96 0.92 0.83 0.83 0.84 0.88 0.93 0.83 0.84 0.85 0.83
0.07 0.06 0.06 0.05 0.08 0.14 0.33 0.55 0.51 0.45 0.36 0.31 0.34 0.32 0.28 0.31 0.29 0.38 0.45 0.47 0.43 0.38 0.40 0.48 0.63 0.79 0.88 0.97 1.08 1.07 1.12 1.08 1.06 1.07 1.05 1.02 0.98 0.94 0.89 0.89 0.90 0.86 0.87 0.93 0.97 0.94 0.92 0.87 0.90
0.09 0.09 0.09 0.08 0.08 0.09 0.16 0.34 0.29 0.30 0.30 0.29 0.37 0.39 0.31 0.30 0.39 0.35 0.31 0.38 0.45 0.38 0.33 0.37 0.49 0.62 0.68 0.75 0.79 0.83 0.90 0.94 0.92 0.91 0.99 1.06 1.01 0.96 0.96 0.96 0.90 0.80 0.82 0.96 0.99 0.96 0.95 0.94 0.90